(325168) = 2008 FS49

Discovered at Mount Lemmon on 2008-03-28 by Mt. Lemmon Survey.

Orbit

Orbit type: Main Belt

Note: WebGL enabled browser required.

epoch2023-09-13.0
epoch JD2460200.5
perihelion date2020-04-29.63702
perihelion JD2458969.13702
argument of perihelion (°)347.42786
ascending node (°)154.99629
inclination (°)0.97119
eccentricity0.1505255
perihelion distance (AU)2.2033762
Tisserand w.r.t. Jupiter3.4
ΔV w.r.t. Earth (km/sec)9.3
semimajor axis (AU)2.5938108
mean anomaly (°)290.52433
mean daily motion (°/day)0.23593720
aphelion distance (AU)2.984
period (years)4.18
P-vector [x]-0.79256001
P-vector [y]0.56093231
P-vector [z]0.23917268
Q-vector [x]-0.60975184
Q-vector [y]-0.73361141
Q-vector [z]-0.30002832
absolute magnitude17.7
phase slope0.15
uncertainty0
referenceMPEC 2024-A26
observations used186
oppositions12
arc length (days)10586
first opposition used1995
last opposition used2024
residual rms (arc-secs)0.70
perturbers coarse indicatorM-v
perturbers precise indicator003Ek
first observation date used1995-01-08.0
last observation date used2024-01-02.0
computer nameMPCLINUX
JD of orbit computation2456937.201804
perihelion JD uncertainty (days)1.2230E-04
argument of perihelion uncertainty (°)2.8111E-04
ascending node uncertainty (°)2.7967E-04
inclination uncertainty (°)6.2715E-06
eccentricity uncertainty 6.3489E-08
perihelion distance uncertainty (AU)1.5982E-07
Minimum Orbit Intersection Distances (in AU)
for orbit epoch: 2460200.5, reference: E2024-A12
Mercury1.85204
Venus1.48661
Earth1.21468
Mars0.5444
Jupiter2.02996
Saturn6.57519
Uranus16.1997
Neptune26.9973

Observations

191 total observations over interval: 1995 01 08.38235 – 2024 01 02.314911
These data are available for download (format description).

Date (UT) J2000 RA J2000 Dec Magn Location Ref
1995 01 08.38235 07 41 21.05 +20 11 52.9 20.0 V 691 – Steward Observatory, Kitt Peak-Spacewatch MPS 247788
1995 01 08.40697 07 41 19.55 +20 11 56.9   691 – Steward Observatory, Kitt Peak-Spacewatch MPS 247788
1995 01 08.43145 07 41 18.05 +20 12 00.6   691 – Steward Observatory, Kitt Peak-Spacewatch MPS 247788
2001 08 21.16381 21 55 44.79 -12 24 09.8 19.8 R 807 – Cerro Tololo Observatory, La Serena MPS 247788
2001 08 21.23808 21 55 40.79 -12 24 31.7   807 – Cerro Tololo Observatory, La Serena MPS 247788
2006 10 19.32285 02 48 56.04 +14 50 26.5 21.5 V 691 – Steward Observatory, Kitt Peak-Spacewatch MPS 247651
2006 10 19.34030 02 48 55.16 +14 50 22.1 21.3 V 691 – Steward Observatory, Kitt Peak-Spacewatch MPS 247651
2006 10 19.35774 02 48 54.30 +14 50 18.2 21.3 V 691 – Steward Observatory, Kitt Peak-Spacewatch MPS 247651
2006 10 27.32885 02 42 03.22 +14 16 20.7 21.2 V 691 – Steward Observatory, Kitt Peak-Spacewatch MPS 247651
2006 10 27.34627 02 42 02.23 +14 16 16.6 21.6 V 691 – Steward Observatory, Kitt Peak-Spacewatch MPS 247651
2006 10 27.36411 02 42 01.19 +14 16 11.4 20.9 V 691 – Steward Observatory, Kitt Peak-Spacewatch MPS 247651
2008 02 13.36497 13 15 40.39 -07 23 29.0 21.5 V G96 – Mt. Lemmon Survey MPS 247788
2008 02 13.37538 13 15 40.53 -07 23 30.0 21.7 V G96 – Mt. Lemmon Survey MPS 247788
2008 02 13.38579 13 15 40.68 -07 23 30.1 22.0 V G96 – Mt. Lemmon Survey MPS 247788
2008 02 13.39637 13 15 40.78 -07 23 30.8 21.6 V G96 – Mt. Lemmon Survey MPS 247788
2008 03 28.29576 12 58 13.00 -05 06 52.8 20.0 V G96 – Mt. Lemmon Survey MPS 244880
2008 03 28.30037 12 58 12.75 -05 06 51.0 20.0 V G96 – Mt. Lemmon Survey MPS 244880
2008 03 28.30505 12 58 12.50 -05 06 49.2 20.0 V G96 – Mt. Lemmon Survey MPS 244880
2008 03 28.30974 12 58 12.25 -05 06 48.0 19.8 V G96 – Mt. Lemmon Survey MPS 244880
2008 03 29.33145 12 57 20.44 -05 00 54.2 20.8 V G96 – Mt. Lemmon Survey MPS 244880
2008 03 29.33668 12 57 20.16 -05 00 52.4 20.7 V G96 – Mt. Lemmon Survey MPS 244880
2008 03 29.34192 12 57 19.87 -05 00 50.4 21.3 V G96 – Mt. Lemmon Survey MPS 244880
2008 03 29.34717 12 57 19.62 -05 00 48.3 20.5 V G96 – Mt. Lemmon Survey MPS 244880
2008 04 03.31204 12 53 04.81 -04 31 54.4 20.2 V G96 – Mt. Lemmon Survey MPS 246846
2008 04 03.31980 12 53 04.38 -04 31 51.5 20.1 V G96 – Mt. Lemmon Survey MPS 246846
2008 04 03.32764 12 53 03.94 -04 31 48.7 20.3 V G96 – Mt. Lemmon Survey MPS 246846
2008 04 03.33551 12 53 03.51 -04 31 46.1 20.1 V G96 – Mt. Lemmon Survey MPS 246846
2008 04 07.24944 12 49 43.28 -04 09 12.2 20.0 V G96 – Mt. Lemmon Survey MPS 246846
2008 04 07.25533 12 49 42.96 -04 09 10.5 20.1 V G96 – Mt. Lemmon Survey MPS 246846
2008 04 07.26119 12 49 42.67 -04 09 08.2 20.2 V G96 – Mt. Lemmon Survey MPS 246846
2008 04 07.26704 12 49 42.34 -04 09 06.3 20.2 V G96 – Mt. Lemmon Survey MPS 246846
2008 04 11.15923 12 46 28.75 -03 47 25.7 20.5 V 691 – Steward Observatory, Kitt Peak-Spacewatch MPS 247651
2008 04 11.17681 12 46 27.90 -03 47 20.0 20.1 V 691 – Steward Observatory, Kitt Peak-Spacewatch MPS 247651
2008 04 11.19440 12 46 26.99 -03 47 13.8 20.3 V 691 – Steward Observatory, Kitt Peak-Spacewatch MPS 247651
2008 05 04.19295 12 32 26.95 -02 15 19.4 21.4 V G96 – Mt. Lemmon Survey MPS 249031
2008 05 04.19748 12 32 26.88 -02 15 18.6 21.5 V G96 – Mt. Lemmon Survey MPS 249031
2008 05 04.20187 12 32 26.77 -02 15 18.4 21.7 V G96 – Mt. Lemmon Survey MPS 249031
2008 05 04.20634 12 32 26.66 -02 15 17.8 21.1 V G96 – Mt. Lemmon Survey MPS 249031
2010 11 06.23253 01 09 55.18 +06 09 23.1 21.4 V G96 – Mt. Lemmon Survey MPS 355500
2010 11 06.24030 01 09 54.82 +06 09 21.3 21.5 V G96 – Mt. Lemmon Survey MPS 355500
2010 11 06.25601 01 09 54.14 +06 09 17.2 21.6 V G96 – Mt. Lemmon Survey MPS 355500
2012 02 14.59965 11 18 51.833 +04 32 13.20 20.3 i F51 – Pan-STARRS 1, Haleakala MPS 411603
2012 02 14.61109 11 18 51.394 +04 32 16.58 20.3 i F51 – Pan-STARRS 1, Haleakala MPS 411603
2012 03 13.21116 10 57 02.44 +07 06 31.7 20.5 V G96 – Mt. Lemmon Survey MPS 416163
2012 03 13.22036 10 57 01.98 +07 06 34.6 20.6 V G96 – Mt. Lemmon Survey MPS 416163
2012 03 13.22973 10 57 01.51 +07 06 38.0 20.4 V G96 – Mt. Lemmon Survey MPS 416163
2012 03 13.23911 10 57 01.00 +07 06 41.0 20.5 V G96 – Mt. Lemmon Survey MPS 416163
2012 03 21.25825 10 51 00.10 +07 47 52.8 20.4 V G96 – Mt. Lemmon Survey MPS 417274
2012 03 21.26339 10 50 59.89 +07 47 54.0 20.4 V G96 – Mt. Lemmon Survey MPS 417274
2012 03 21.26854 10 50 59.67 +07 47 55.5 20.4 V G96 – Mt. Lemmon Survey MPS 417274
2012 03 21.27372 10 50 59.42 +07 47 56.9 20.4 V G96 – Mt. Lemmon Survey MPS 417274
2012 04 23.17065 10 42 42.98 +08 49 14.3 21.1 V G96 – Mt. Lemmon Survey MPS 422798
2012 04 23.17928 10 42 43.09 +08 49 13.5 21.7 V G96 – Mt. Lemmon Survey MPS 422798
2012 04 23.18793 10 42 43.16 +08 49 12.7 20.9 V G96 – Mt. Lemmon Survey MPS 422798
2012 04 23.19660 10 42 43.27 +08 49 12.5 21.7 V G96 – Mt. Lemmon Survey MPS 422798
2014 09 15.38125 00 39 57.88 +03 31 18.2 21.4 V G96 – Mt. Lemmon Survey MPS 532995
2014 09 15.38872 00 39 57.54 +03 31 16.2 20.8 V G96 – Mt. Lemmon Survey MPS 532995
2014 09 15.39619 00 39 57.22 +03 31 14.1 20.7 V G96 – Mt. Lemmon Survey MPS 532995
2014 09 18.43281 00 37 38.902 +03 15 21.75 21.3 w F51 – Pan-STARRS 1, Haleakala MPS 532995
2014 09 18.44498 00 37 38.303 +03 15 17.96 21.3 w F51 – Pan-STARRS 1, Haleakala MPS 532995
2014 09 18.44893 00 37 38.124 +03 15 16.57 21.3 w F51 – Pan-STARRS 1, Haleakala MPS 532995
2014 09 18.45714 00 37 37.726 +03 15 14.10 21.4 w F51 – Pan-STARRS 1, Haleakala MPS 532995
2014 09 18.46111 00 37 37.541 +03 15 12.72 21.3 w F51 – Pan-STARRS 1, Haleakala MPS 532995
2014 09 18.46939 00 37 37.131 +03 15 10.04 21.3 w F51 – Pan-STARRS 1, Haleakala MPS 532995
2014 09 18.47336 00 37 36.943 +03 15 08.77 21.3 w F51 – Pan-STARRS 1, Haleakala MPS 532995
2014 09 20.48284 00 36 01.582 +03 04 15.13 21.6 w F51 – Pan-STARRS 1, Haleakala MPS 536319
2014 09 20.49442 00 36 01.002 +03 04 11.19 21.7 w F51 – Pan-STARRS 1, Haleakala MPS 536319
2014 09 20.50591 00 36 00.437 +03 04 07.59 21.5 w F51 – Pan-STARRS 1, Haleakala MPS 536319
2014 09 20.51741 00 35 59.852 +03 04 03.73 21.7 w F51 – Pan-STARRS 1, Haleakala MPS 536319
2016 01 14.16746 09 25 02.45 +14 22 46.3 21.1   J43 – Oukaimeden Observatory, Marrakech MPS 671484
2016 01 14.17468 09 25 02.19 +14 22 47.1 20.6   J43 – Oukaimeden Observatory, Marrakech MPS 671484
2016 01 14.18192 09 25 01.97 +14 22 48.7 21.4   J43 – Oukaimeden Observatory, Marrakech MPS 671484
2016 01 14.18917 09 25 01.60 +14 22 50.0 20.1   J43 – Oukaimeden Observatory, Marrakech MPS 671484
2016 01 15.55562 09 24 10.843 +14 27 19.42 20.2 w F51 – Pan-STARRS 1, Haleakala MPS 673772
2016 01 15.56766 09 24 10.349 +14 27 21.89 20.2 w F51 – Pan-STARRS 1, Haleakala MPS 673772
2016 01 15.57971 09 24 09.858 +14 27 24.19 20.1 w F51 – Pan-STARRS 1, Haleakala MPS 673772
2016 01 15.59175 09 24 09.364 +14 27 26.62 20.2 w F51 – Pan-STARRS 1, Haleakala MPS 673772
2016 01 17.40715 09 22 57.784 +14 33 44.53 20.1 r F51 – Pan-STARRS 1, Haleakala MPS 673772
2016 01 17.41924 09 22 57.263 +14 33 47.28 20.1 r F51 – Pan-STARRS 1, Haleakala MPS 673772
2016 01 17.43161 09 22 56.718 +14 33 49.96 20.3 r F51 – Pan-STARRS 1, Haleakala MPS 673772
2016 01 17.44375 09 22 56.187 +14 33 52.55 20.0 r F51 – Pan-STARRS 1, Haleakala MPS 673772
2016 01 29.39887 09 13 19.67 +15 23 19.9 20.0 V 691 – Steward Observatory, Kitt Peak-Spacewatch MPS 675156
2016 01 29.41778 09 13 18.59 +15 23 24.7 19.9 V 691 – Steward Observatory, Kitt Peak-Spacewatch MPS 675156
2016 01 29.43670 09 13 17.58 +15 23 30.3 19.7 V 691 – Steward Observatory, Kitt Peak-Spacewatch MPS 675156
2016 01 31.36311 09 11 33.604 +15 32 20.51 19.7 w F51 – Pan-STARRS 1, Haleakala MPS 678651
2016 01 31.37803 09 11 32.751 +15 32 24.72 19.6 w F51 – Pan-STARRS 1, Haleakala MPS 678651
2016 01 31.39287 09 11 31.899 +15 32 28.94 19.6 w F51 – Pan-STARRS 1, Haleakala MPS 678651
2016 01 31.40770 09 11 31.052 +15 32 33.06 19.7 w F51 – Pan-STARRS 1, Haleakala MPS 678651
2016 02 01.37844 09 10 37.791 +15 37 02.07 19.9 w F51 – Pan-STARRS 1, Haleakala MPS 678651
2016 02 01.38987 09 10 37.134 +15 37 05.32 19.9 w F51 – Pan-STARRS 1, Haleakala MPS 678651
